[[{"header":{"parameterUnit":"m.s-1","parameterCategory":2,"la1":30.2991,"la2":30.254,"lo1":-89.0895,"lo2":-89.0444,"dy":0.0017,"dx":0.0017,"nx":28,"ny":28,"refTime":"2025-06-08T21:00:00:Z","depth":"0","parameterNumber":2,"parameterNumberName":"U-component_of_CURRENTS"},"data":[0,0,0,0,0,0,0,0,0,0,0,0,0,0,0,0,0,0,0,0,0,0,0,0,0,0,0,0,0,0,0,0,0,0,0,0,0,0,0,0,0,0,0,0,0,0,0,0,0,0,0,0,0,0,0,0,0,0,0.3222,0.3224,0,0.3278,0.3278,0.3279,0.3235,0.3234,0.3232,0.3231,0.3237,0.3238,0.3239,0,0,0,0,0,0,0,0,0,0,0,0,0,0.3033,0.3037,0.3222,0.3224,0.3225,0.3278,0.3278,0.3279,0.3235,0.3233,0.3232,0.3231,0.3236,0.3238,0.3239,0,0,0,0,0,0,0,0,0,0,0,0,0,0.3098,0.3038,0.3222,0.3215,0.3216,0.3278,0.3278,0.3279,0.3235,0.3233,0.3232,0.323,0.3236,0.3238,0.3239,0.3287,0,0,0.3245,0.3246,0,0,0,0,0,0,0,0,0.3094,0.3104,0.3215,0.3216,0.3217,0.3254,0.3214,0.3281,0.3236,0.322,0.3231,0.3229,0.3244,0.3245,0.325,0.3287,0.3287,0.3245,0.3247,0.3247,0.3248,0,0,0,0,0,0,0,0.309,0.3101,0.3237,0.3217,0.3218,0.3195,0.3202,0.3226,0.3235,0.3221,0.322,0.3239,0.3243,0.3248,0.325,0.3287,0.3245,0.3247,0.3248,0.3249,0.3495,0.35,0,0,0,0,0,0,0.3103,0.3098,0.3235,0.3239,0.3158,0.32,0.3208,0.3238,0.3235,0.3236,0.324,0.3237,0.3246,0.3247,0.325,0.3425,0.3247,0.3249,0.325,0.349,0.3496,0.3502,0,0,0,0,0,0,0.3099,0.3116,0.3233,0.3174,0.3189,0.3207,0.324,0.324,0.3262,0.3252,0.3249,0.3264,0.3244,0.3247,0.3338,0.342,0.325,0.3252,0.3484,0.3492,0.3499,0.3699,0,0,0,0,0,0,0.3094,0.3114,0.314,0.3176,0.3193,0.3346,0.3243,0.3243,0.3279,0.3275,0.3272,0.327,0.3243,0.3337,0.334,0.3419,0.3253,0.3477,0.3487,0.3497,0.3685,0.3713,0.3736,0,0,0,0,0,0.3087,0.3178,0.3141,0.3157,0.3228,0.3352,0.3361,0.3358,0.3282,0.3354,0.3341,0.327,0.3402,0.3344,0.3346,0.3427,0.3472,0.3484,0.3496,0.3674,0.3707,0.3735,0,0,0,0,0,0,0.3168,0.3183,0.3143,0.3246,0.3311,0.3349,0.34,0.3378,0.3418,0.3394,0.3345,0.3349,0.3461,0.3428,0.3363,0.3533,0.3424,0.3437,0.3558,0.3589,0.3614,0.3612,0.3255,0,0,0,0,0,0.318,0.3225,0.326,0.3355,0.3368,0.3369,0.3406,0.3417,0.3454,0.3465,0.3465,0.3468,0.3514,0.3537,0.3577,0.3667,0.3638,0.3723,0.3748,0.377,0.3775,0.3857,0.3889,0.3542,0.3542,0.3542,0,0,0.3236,0.326,0.3283,0.3369,0.3383,0.3478,0.3388,0.3483,0.3552,0.3463,0.3554,0.3567,0.3564,0.368,0.3724,0.3659,0.3853,0.3785,0.3803,0.3797,0.3873,0.3906,0.3936,0.3551,0.3549,0.3548,0,0,0.3405,0.3384,0.3465,0.3518,0.3577,0.3587,0.3621,0.367,0.3668,0.3774,0.3725,0.3799,0.3852,0.3886,0.3896,0.4088,0.3994,0.4091,0.4207,0.4288,0.4316,0.4341,0.433,0.4352,0.4093,0.4093,0.4093,0,0.3472,0.3571,0.353,0.3635,0.3684,0.3641,0.376,0.3777,0.3863,0.3863,0.3839,0.3949,0.3954,0.4074,0.4144,0.4144,0.4137,0.4084,0.4319,0.4343,0.4364,0.4348,0.4369,0.4104,0.4103,0.4102,0.4101,0,0.3685,0.3763,0.3831,0.3906,0.3969,0.4081,0.4081,0.4108,0.4076,0.4095,0.42,0.4236,0.4288,0.4321,0.4286,0.4448,0.4375,0.4348,0.4232,0.4411,0.4382,0.4401,0.412,0.4116,0.4113,0.411,0,0,0.3828,0.3947,0.397,0.4001,0.4105,0.4165,0.4245,0.4302,0.429,0.4392,0.4441,0.4565,0.4549,0.4564,0.4554,0.4627,0.4774,0.4557,0.4556,0.4528,0.4896,0.4631,0.4624,0.479,0.4795,0.4799,0.4806,0,0.3999,0.4212,0.4233,0.4403,0.4479,0.4434,0.4488,0.4519,0.4513,0.4551,0.4589,0.4657,0.465,0.4667,0.4766,0.4756,0.4837,0.477,0.4741,0.4739,0.4469,0.4643,0.4478,0.4453,0.4823,0.4826,0.4828,0,0.418,0.4282,0.4483,0.4537,0.4554,0.4637,0.4617,0.4678,0.4694,0.4677,0.477,0.478,0.491,0.4871,0.5002,0.4955,0.496,0.4956,0.4956,0.4648,0.4511,0.4341,0.4471,0.4477,0.4856,0.4854,0.4852,0,0.4242,0.4432,0.4571,0.4616,0.4696,0.4701,0.4718,0.4719,0.4703,0.477,0.477,0.4922,0.496,0.5056,0.504,0.5038,0.5133,0.5121,0.4898,0.4875,0.4693,0.4644,0.4806,0.5253,0.5253,0.5253,0.5253,0,0.4396,0.4487,0.4585,0.4649,0.4705,0.4743,0.4762,0.4751,0.4766,0.4751,0.4853,0.4868,0.5014,0.5058,0.5084,0.5011,0.5175,0.4938,0.4886,0.4751,0.471,0.4665,0.4601,0.5253,0.5253,0.5253,0.5253,0,0.4444,0.4543,0.4654,0.4733,0.474,0.4766,0.4759,0.4732,0.4757,0.4746,0.4772,0.4852,0.4871,0.4949,0.5041,0.4994,0.4822,0.4926,0.4698,0.4617,0.4354,0.4303,0.3948,0.3876,0.4688,0.4682,0.4677,0,0.449,0.4574,0.4674,0.4689,0.472,0.4745,0.4713,0.4723,0.468,0.4693,0.4669,0.4718,0.4659,0.4673,0.4639,0.4607,0.4573,0.4424,0.4404,0.4331,0.4242,0.3964,0.3917,0.4254,0.4246,0.4239,0.4234,0,0.4528,0.4564,0.4627,0.4671,0.4663,0.4633,0.4597,0.456,0.4526,0.4494,0.4396,0.4366,0.4341,0.4223,0.4187,0.4166,0.4171,0.4272,0.4332,0.4011,0.3591,0.3499,0.4205,0.4174,0.418,0.4184,0.4188,0.419,0.4499,0.4523,0.4582,0.4595,0.4579,0.4462,0.4327,0.4287,0.4175,0.3999,0.4099,0.3936,0.3971,0.3864,0.3811,0.3707,0.3644,0.3685,0.3656,0.3403,0.3241,0.373,0.3541,0.3544,0.3546,0.3547,0.3549,0,0.441,0.4442,0.4478,0.4423,0.4307,0.4336,0.4167,0.3966,0.3745,0.3698,0.3554,0.3489,0.3399,0.3437,0.3389,0.3238,0.3074,0.3173,0.2923,0.2946,0.3562,0.3465,0.3089,0.3089,0.3089,0.3089,0.3089,0.3089,0.4366,0.434,0.4348,0.4141,0.4069,0.3749,0.3587,0.3372,0.3253,0.3014,0.291,0.293,0.313,0.3151,0.3096,0.3,0.2836,0.2465,0.2568,0.3232,0.3285,0.3336,0.3247,0.283,0.2829,0.1878,0.1871,0.1866]},{"header":{"parameterUnit":"m.s-1","parameterCategory":2,"la1":30.2991,"la2":30.254,"lo1":-89.0895,"lo2":-89.0444,"dy":0.0017,"dx":0.0017,"nx":28,"ny":28,"refTime":"2025-06-08T21:00:00:Z","depth":"0","parameterNumber":3,"parameterNumberName":"V-component_of_CURRENTS"},"data":[0,0,0,0,0,0,0,0,0,0,0,0,0,0,0,0,0,0,0,0,0,0,0,0,0,0,0,0,0,0,0,0,0,0,0,0,0,0,0,0,0,0,0,0,0,0,0,0,0,0,0,0,0,0,0,0,0,0,0.0619,0.062,0,0.063,0.063,0.063,0.0605,0.0605,0.0604,0.0604,0.0605,0.0606,0.0606,0,0,0,0,0,0,0,0,0,0,0,0,0,0.0492,0.0495,0.0619,0.062,0.062,0.063,0.063,0.063,0.0605,0.0605,0.0604,0.0603,0.0605,0.0606,0.0606,0,0,0,0,0,0,0,0,0,0,0,0,0,0.0526,0.0495,0.0619,0.0612,0.0611,0.063,0.063,0.063,0.0605,0.0605,0.0604,0.0603,0.0605,0.0606,0.0606,0.0625,0,0,0.0609,0.0609,0,0,0,0,0,0,0,0,0.0525,0.0531,0.0612,0.0612,0.0612,0.0619,0.0586,0.0629,0.0605,0.0604,0.0604,0.0603,0.0612,0.0612,0.0611,0.0625,0.0625,0.0609,0.0609,0.061,0.061,0,0,0,0,0,0,0,0.0522,0.053,0.062,0.0613,0.0613,0.0579,0.0583,0.0593,0.0609,0.0604,0.0603,0.061,0.0611,0.061,0.0611,0.0626,0.0609,0.0609,0.061,0.061,0.0697,0.0698,0,0,0,0,0,0,0.0534,0.0528,0.062,0.0621,0.0569,0.0582,0.0587,0.0614,0.0609,0.0609,0.0611,0.0609,0.0609,0.061,0.0611,0.0691,0.061,0.061,0.0611,0.0695,0.0697,0.0699,0,0,0,0,0,0,0.0531,0.0543,0.0619,0.0575,0.0583,0.0586,0.0616,0.0615,0.0623,0.0615,0.0613,0.0621,0.0609,0.061,0.0659,0.0688,0.0611,0.0611,0.0693,0.0695,0.0698,0.0814,0,0,0,0,0,0,0.0528,0.0542,0.0562,0.0578,0.0587,0.0661,0.0617,0.0616,0.0629,0.0627,0.0623,0.0622,0.0608,0.0658,0.066,0.0688,0.0612,0.069,0.0694,0.0697,0.0808,0.082,0.0831,0,0,0,0,0,0.0524,0.0571,0.0564,0.0574,0.0616,0.0664,0.0666,0.066,0.0631,0.0658,0.0661,0.0622,0.068,0.0662,0.0663,0.0691,0.0689,0.0693,0.0697,0.0802,0.0818,0.0831,0,0,0,0,0,0,0.0544,0.0573,0.0566,0.0624,0.0651,0.0662,0.0679,0.0671,0.0691,0.0685,0.0662,0.0664,0.0713,0.0691,0.0671,0.0725,0.0671,0.0676,0.0751,0.0765,0.0776,0.0822,0.0612,0,0,0,0,0,0.0554,0.059,0.0614,0.0665,0.0672,0.0672,0.0685,0.069,0.0709,0.0715,0.0718,0.0716,0.0729,0.074,0.075,0.0791,0.0762,0.0804,0.0815,0.0825,0.0864,0.0856,0.0871,0.0713,0.0713,0.0713,0,0,0.0574,0.0599,0.0617,0.0669,0.0676,0.0722,0.0678,0.0718,0.0761,0.0714,0.0773,0.0764,0.075,0.0799,0.0816,0.0787,0.0849,0.0831,0.084,0.0873,0.0862,0.0878,0.0891,0.0716,0.0715,0.0715,0,0,0.0645,0.0653,0.0702,0.0725,0.0758,0.0768,0.0784,0.081,0.0818,0.0879,0.0849,0.088,0.0893,0.0905,0.0903,0.0988,0.0913,0.0964,0.1063,0.1055,0.1068,0.1079,0.1035,0.1041,0.0967,0.0968,0.0968,0,0.0668,0.0734,0.0727,0.078,0.0812,0.0793,0.086,0.0871,0.0918,0.095,0.0917,0.0972,0.0951,0.1018,0.1041,0.1018,0.0982,0.1009,0.1071,0.1082,0.1091,0.1043,0.1049,0.0974,0.0973,0.0972,0.0972,0,0.0775,0.0816,0.0847,0.0906,0.0946,0.0999,0.1019,0.1048,0.1049,0.108,0.115,0.1137,0.1176,0.1155,0.1124,0.1186,0.1126,0.1086,0.1037,0.1115,0.1058,0.1062,0.0982,0.098,0.0978,0.0977,0,0,0.0862,0.091,0.0925,0.0955,0.1014,0.1063,0.1123,0.1196,0.1247,0.1278,0.1361,0.1377,0.1376,0.1376,0.1334,0.1324,0.1338,0.124,0.1237,0.12,0.1292,0.1238,0.1236,0.1299,0.1301,0.1303,0.1214,0,0.0947,0.1057,0.1072,0.1175,0.1222,0.1222,0.1289,0.1351,0.1386,0.1459,0.1457,0.1519,0.1455,0.1468,0.1462,0.1372,0.1359,0.1365,0.1221,0.1217,0.1163,0.1244,0.1246,0.1167,0.1217,0.1218,0.1218,0,0.1066,0.1108,0.1224,0.1289,0.1313,0.1374,0.147,0.1536,0.1616,0.1641,0.1708,0.1704,0.173,0.1642,0.1569,0.1569,0.1461,0.1375,0.1369,0.1294,0.1173,0.1103,0.1171,0.1197,0.1223,0.1223,0.1222,0,0.1144,0.1229,0.1322,0.1346,0.1416,0.146,0.1511,0.1602,0.1679,0.1767,0.1825,0.1857,0.186,0.1767,0.1606,0.1585,0.1489,0.1428,0.1284,0.1275,0.1242,0.1228,0.133,0.139,0.139,0.139,0.1391,0,0.1243,0.1303,0.135,0.1389,0.1486,0.1532,0.1661,0.1696,0.1809,0.1923,0.1934,0.1999,0.189,0.1822,0.1665,0.1493,0.1534,0.1335,0.1273,0.1277,0.1268,0.1257,0.1205,0.1387,0.1388,0.1388,0.1389,0,0.1306,0.1346,0.1428,0.1495,0.1521,0.1597,0.1726,0.1827,0.1903,0.2039,0.2073,0.211,0.2023,0.1881,0.1706,0.156,0.1381,0.1314,0.1311,0.1253,0.1152,0.1102,0.111,0.1142,0.1163,0.1162,0.116,0,0.1333,0.139,0.149,0.1542,0.1562,0.1671,0.176,0.1864,0.1976,0.2098,0.2171,0.2147,0.2131,0.1873,0.1627,0.137,0.1344,0.1195,0.1178,0.119,0.1089,0.1106,0.1136,0.1154,0.1153,0.1152,0.1151,0,0.1358,0.1415,0.1478,0.1585,0.1675,0.1799,0.192,0.2018,0.2149,0.2235,0.2313,0.2301,0.2082,0.1876,0.1551,0.1349,0.1232,0.1166,0.1201,0.1131,0.1136,0.1122,0.114,0.1142,0.1143,0.1144,0.1144,0.1144,0.1372,0.1418,0.1523,0.1627,0.1745,0.1903,0.1989,0.2141,0.2293,0.2396,0.2385,0.2377,0.2157,0.1732,0.1474,0.1151,0.1154,0.1068,0.1011,0.1035,0.1082,0.1073,0.0994,0.0994,0.0994,0.0994,0.0994,0,0.1371,0.1445,0.1551,0.169,0.1827,0.1894,0.2079,0.2167,0.2315,0.2431,0.2455,0.244,0.2096,0.1791,0.1361,0.1106,0.1043,0.098,0.1044,0.1085,0.1099,0.1121,0.1043,0.1043,0.1043,0.1043,0.1043,0.1043,0.138,0.1468,0.153,0.1727,0.1833,0.1993,0.2087,0.2202,0.2318,0.2474,0.2569,0.2645,0.2667,0.1813,0.1351,0.1148,0.1101,0.0946,0.0985,0.1013,0.1021,0.1027,0.1048,0.0955,0.0954,0.1073,0.1073,0.1073]}],[{"header":{"parameterUnit":"m.s-1","parameterCategory":2,"la1":30.2991,"la2":30.254,"lo1":-89.0895,"lo2":-89.0444,"dy":0.0017,"dx":0.0017,"nx":28,"ny":28,"refTime":"2025-06-08T21:00:00:Z","depth":"2","parameterNumber":2,"parameterNumberName":"U-component_of_CURRENTS"},"data":[0,0,0,0,0,0,0,0,0,0,0,0,0,0,0,0,0,0,0,0,0,0,0,0,0,0,0,0,0,0,0,0,0,0,0,0,0,0,0,0,0,0,0,0,0,0,0,0,0,0,0,0,0,0,0,0,0,0,0.3098,0.31,0,0.3181,0.3181,0.3181,0.317,0.3169,0.3169,0.3169,0.3171,0.3171,0.3171,0,0,0,0,0,0,0,0,0,0,0,0,0,0.2903,0.2906,0.3098,0.31,0.3102,0.3181,0.3181,0.3181,0.317,0.3169,0.3169,0.3168,0.317,0.3171,0.3172,0,0,0,0,0,0,0,0,0,0,0,0,0,0.2977,0.2907,0.3098,0.3113,0.3116,0.3181,0.3181,0.3181,0.317,0.3169,0.3169,0.3168,0.317,0.3171,0.3172,0.3189,0,0,0.3174,0.3174,0,0,0,0,0,0,0,0,0.2973,0.2983,0.3109,0.3112,0.3116,0.3173,0.3114,0.3183,0.317,0.3139,0.3169,0.3168,0.3171,0.3172,0.3175,0.3189,0.3189,0.3174,0.3174,0.3174,0.3175,0,0,0,0,0,0,0,0.2968,0.2979,0.312,0.3111,0.3116,0.3108,0.3116,0.3126,0.3148,0.3142,0.3143,0.3169,0.3171,0.3175,0.3175,0.3189,0.3174,0.3174,0.3175,0.3175,0.3386,0.3391,0,0,0,0,0,0,0.2981,0.2975,0.3118,0.3124,0.3053,0.3113,0.3122,0.3147,0.315,0.3153,0.317,0.3169,0.3174,0.3175,0.3175,0.331,0.3174,0.3175,0.3176,0.3381,0.3387,0.3393,0,0,0,0,0,0,0.2976,0.2993,0.3115,0.3059,0.3075,0.3118,0.3145,0.3149,0.3172,0.3174,0.3174,0.3192,0.3173,0.3174,0.3191,0.3305,0.3175,0.3176,0.3375,0.3383,0.339,0.3505,0,0,0,0,0,0,0.297,0.299,0.3016,0.306,0.3079,0.3202,0.3147,0.3152,0.3193,0.3192,0.3193,0.3191,0.3173,0.319,0.3192,0.3304,0.3177,0.3368,0.3378,0.3387,0.3495,0.3516,0.3534,0,0,0,0,0,0.2963,0.3046,0.3017,0.3035,0.3112,0.3207,0.3216,0.3235,0.3195,0.3242,0.3206,0.3192,0.3257,0.3192,0.3193,0.3309,0.3363,0.3375,0.3387,0.3486,0.3512,0.3534,0,0,0,0,0,0,0.3024,0.3054,0.3024,0.3121,0.3166,0.321,0.3264,0.325,0.3258,0.3248,0.3208,0.3206,0.3283,0.3277,0.3207,0.3409,0.333,0.3343,0.3406,0.343,0.3449,0.346,0.3177,0,0,0,0,0,0.3034,0.3072,0.3111,0.3189,0.3212,0.3222,0.3259,0.3272,0.3288,0.3291,0.3277,0.329,0.3334,0.3357,0.3386,0.3461,0.3445,0.3558,0.3578,0.3594,0.3611,0.3665,0.3689,0.3431,0.3431,0.3431,0,0,0.307,0.3104,0.312,0.3198,0.3222,0.3288,0.3243,0.3328,0.3375,0.329,0.3336,0.3343,0.3366,0.3459,0.3501,0.3465,0.3662,0.3609,0.3621,0.363,0.368,0.3704,0.3726,0.3439,0.3438,0.3436,0,0,0.3179,0.3197,0.3249,0.3286,0.3348,0.3372,0.3399,0.3439,0.3449,0.35,0.3462,0.3515,0.357,0.3608,0.3637,0.3785,0.3755,0.3835,0.3945,0.3998,0.4018,0.4036,0.4039,0.4056,0.3854,0.3854,0.3854,0,0.3219,0.3286,0.3291,0.3357,0.3391,0.341,0.3474,0.3515,0.3551,0.3563,0.3546,0.3642,0.3653,0.3766,0.3834,0.383,0.3832,0.3839,0.4018,0.4035,0.4051,0.405,0.4067,0.3861,0.386,0.3859,0.3859,0,0.3343,0.3393,0.3449,0.3502,0.3549,0.3633,0.3667,0.3722,0.3732,0.3748,0.3844,0.3857,0.3913,0.3969,0.3946,0.4098,0.4052,0.402,0.3941,0.4083,0.4074,0.409,0.3871,0.3868,0.3866,0.3864,0,0,0.3437,0.3507,0.3521,0.3516,0.362,0.3655,0.3773,0.3854,0.3905,0.397,0.4033,0.4146,0.4134,0.4168,0.4168,0.4239,0.4351,0.4196,0.4196,0.4169,0.4443,0.4176,0.4166,0.4347,0.4351,0.4354,0.4384,0,0.3523,0.3611,0.3648,0.3725,0.3757,0.3803,0.3891,0.3962,0.4033,0.4106,0.4162,0.4232,0.4217,0.4254,0.4328,0.4356,0.4401,0.4344,0.4337,0.4336,0.4056,0.4179,0.389,0.3872,0.4399,0.4401,0.4403,0,0.3591,0.3655,0.3748,0.3756,0.3775,0.3868,0.3969,0.4031,0.4168,0.4221,0.4325,0.4341,0.447,0.442,0.4546,0.4511,0.4491,0.45,0.4499,0.422,0.4099,0.3823,0.388,0.4428,0.4426,0.4424,0.4423,0,0.3559,0.3662,0.3727,0.3753,0.3853,0.3925,0.3963,0.4096,0.4147,0.4301,0.4364,0.4492,0.4556,0.4608,0.4623,0.4601,0.4721,0.4674,0.4405,0.4384,0.4119,0.4066,0.4732,0.4732,0.4732,0.4732,0.4732,0,0.357,0.36,0.374,0.378,0.3877,0.3909,0.4044,0.4099,0.4237,0.4289,0.4401,0.4463,0.4613,0.4672,0.4672,0.4585,0.4753,0.4439,0.4387,0.4148,0.41,0.4566,0.4547,0.4733,0.4733,0.4732,0.4732,0,0.3505,0.3585,0.3657,0.3808,0.3873,0.392,0.4065,0.4148,0.4259,0.4347,0.4387,0.4505,0.4527,0.4604,0.4686,0.4604,0.4576,0.4481,0.4162,0.4068,0.4188,0.4175,0.4196,0.4188,0.418,0.4174,0.4168,0,0.3489,0.3557,0.3691,0.3774,0.3878,0.4002,0.4108,0.419,0.4255,0.4325,0.4331,0.4387,0.4349,0.4357,0.4263,0.4185,0.434,0.3855,0.3737,0.4192,0.4141,0.4139,0.4137,0.3451,0.3441,0.3432,0.3425,0,0.3511,0.3565,0.3595,0.3808,0.3935,0.399,0.4098,0.4115,0.417,0.4219,0.4155,0.4114,0.4051,0.3813,0.3714,0.3635,0.3851,0.3659,0.4282,0.3592,0.348,0.3432,0.3457,0.3347,0.3355,0.336,0.3365,0.3368,0.3511,0.3513,0.3613,0.3792,0.3904,0.3887,0.3826,0.387,0.3825,0.3687,0.3823,0.3609,0.3605,0.3197,0.3077,0.2985,0.3227,0.3129,0.3162,0.3203,0.3071,0.2948,0.269,0.2693,0.2697,0.27,0.2702,0,0.3469,0.3488,0.3634,0.3673,0.374,0.3848,0.3777,0.3607,0.3409,0.3338,0.3228,0.2827,0.2615,0.2597,0.2322,0.228,0.2332,0.2195,0.2286,0.2363,0.2433,0.2268,0.1671,0.1667,0.1664,0.1661,0,0,0.3403,0.3421,0.3491,0.3551,0.3618,0.3443,0.3329,0.3039,0.2871,0.2551,0.2393,0.2452,0.2507,0.2043,0.1988,0.1793,0.2068,0.1708,0.2544,0.2731,0.2796,0.298,0.2811,0,0,0,0,0]},{"header":{"parameterUnit":"m.s-1","parameterCategory":2,"la1":30.2991,"la2":30.254,"lo1":-89.0895,"lo2":-89.0444,"dy":0.0017,"dx":0.0017,"nx":28,"ny":28,"refTime":"2025-06-08T21:00:00:Z","depth":"2","parameterNumber":3,"parameterNumberName":"V-component_of_CURRENTS"},"data":[0,0,0,0,0,0,0,0,0,0,0,0,0,0,0,0,0,0,0,0,0,0,0,0,0,0,0,0,0,0,0,0,0,0,0,0,0,0,0,0,0,0,0,0,0,0,0,0,0,0,0,0,0,0,0,0,0,0,0.05,0.0501,0,0.0527,0.0527,0.0527,0.0524,0.0524,0.0524,0.0524,0.0522,0.0522,0.0522,0,0,0,0,0,0,0,0,0,0,0,0,0,0.0373,0.0376,0.05,0.0501,0.0502,0.0527,0.0527,0.0527,0.0524,0.0524,0.0524,0.0524,0.0522,0.0522,0.0522,0,0,0,0,0,0,0,0,0,0,0,0,0,0.0413,0.0377,0.05,0.0507,0.0509,0.0527,0.0527,0.0527,0.0524,0.0524,0.0524,0.0524,0.0522,0.0522,0.0522,0.052,0,0,0.0522,0.0521,0,0,0,0,0,0,0,0,0.041,0.0417,0.0505,0.0507,0.0508,0.0527,0.0482,0.0525,0.0524,0.0513,0.0524,0.0524,0.0524,0.0524,0.0522,0.052,0.052,0.0522,0.0521,0.0521,0.0521,0,0,0,0,0,0,0,0.0408,0.0415,0.0506,0.0506,0.0508,0.0485,0.049,0.0489,0.0513,0.0514,0.0515,0.0526,0.0524,0.0522,0.0522,0.052,0.0522,0.0521,0.0521,0.0521,0.0583,0.0585,0,0,0,0,0,0,0.0419,0.0413,0.0505,0.0507,0.0464,0.0487,0.0494,0.0517,0.0514,0.0515,0.0526,0.0526,0.0522,0.0522,0.0522,0.0566,0.0521,0.0521,0.0521,0.0581,0.0583,0.0585,0,0,0,0,0,0,0.0416,0.0428,0.0504,0.0464,0.0472,0.0491,0.0516,0.0517,0.0527,0.0525,0.0524,0.0537,0.0522,0.0522,0.0512,0.0564,0.0521,0.0521,0.0579,0.0582,0.0584,0.0625,0,0,0,0,0,0,0.0413,0.0427,0.0446,0.0465,0.0476,0.0529,0.0516,0.0518,0.0536,0.0536,0.0534,0.0533,0.0522,0.0512,0.0512,0.0563,0.0521,0.0577,0.058,0.0583,0.0621,0.0629,0.0635,0,0,0,0,0,0.0408,0.0449,0.0447,0.0458,0.0502,0.053,0.0533,0.0541,0.0537,0.0548,0.0527,0.0533,0.0534,0.0511,0.0511,0.0565,0.0575,0.0579,0.0583,0.0618,0.0627,0.0635,0,0,0,0,0,0,0.0417,0.0453,0.0451,0.0504,0.0517,0.0532,0.0551,0.0549,0.0543,0.0545,0.0526,0.0524,0.0542,0.0543,0.0519,0.0595,0.0569,0.0573,0.0596,0.0604,0.0611,0.0648,0.0521,0,0,0,0,0,0.0425,0.0453,0.048,0.0517,0.0531,0.0538,0.055,0.0557,0.0557,0.0556,0.0544,0.0548,0.0559,0.0569,0.0569,0.0596,0.0577,0.0641,0.0648,0.0654,0.0686,0.0667,0.0674,0.0598,0.0598,0.0598,0,0,0.043,0.046,0.0471,0.0517,0.053,0.0559,0.0545,0.0578,0.0606,0.0556,0.0577,0.0559,0.0566,0.0593,0.0608,0.0602,0.0661,0.0658,0.0663,0.0693,0.0672,0.0679,0.0685,0.06,0.06,0.06,0,0,0.0462,0.0491,0.0522,0.0532,0.0566,0.0585,0.0597,0.0613,0.063,0.0645,0.0619,0.0623,0.064,0.0649,0.0661,0.0709,0.0686,0.0726,0.08,0.078,0.0786,0.0791,0.075,0.0751,0.0741,0.0741,0.0741,0,0.0467,0.0517,0.0533,0.0561,0.058,0.06,0.0632,0.0659,0.0664,0.069,0.0667,0.0691,0.0679,0.0728,0.0746,0.0727,0.0699,0.0762,0.0787,0.0792,0.0796,0.0753,0.0753,0.0744,0.0744,0.0743,0.0743,0,0.0516,0.0546,0.0571,0.0614,0.0634,0.067,0.0707,0.0752,0.0776,0.0786,0.083,0.0797,0.082,0.0823,0.0801,0.0845,0.0807,0.0781,0.076,0.0806,0.0757,0.0757,0.0747,0.0746,0.0746,0.0745,0,0,0.0572,0.0597,0.0609,0.0615,0.0665,0.0687,0.0774,0.085,0.0941,0.092,0.0987,0.0988,0.0964,0.0976,0.0942,0.0934,0.0917,0.0882,0.088,0.0832,0.0854,0.0822,0.0817,0.0884,0.0885,0.0886,0.0797,0,0.0614,0.0645,0.067,0.0712,0.0729,0.0783,0.0873,0.0938,0.1012,0.108,0.1058,0.11,0.1026,0.1047,0.1016,0.0979,0.0924,0.0943,0.0828,0.0826,0.0783,0.082,0.078,0.0699,0.0796,0.0796,0.0796,0,0.0652,0.0682,0.071,0.0764,0.0789,0.0844,0.1006,0.1074,0.1193,0.1259,0.1284,0.1257,0.126,0.1168,0.1098,0.1114,0.098,0.0916,0.091,0.0877,0.0795,0.0677,0.0694,0.0795,0.0795,0.0795,0.0795,0,0.0635,0.0701,0.0722,0.073,0.0821,0.0899,0.0976,0.1131,0.1255,0.1358,0.145,0.1422,0.1437,0.1303,0.1179,0.1136,0.1077,0.0993,0.0813,0.0807,0.0756,0.0746,0.0872,0.0872,0.0873,0.0873,0.0873,0,0.0636,0.0663,0.0731,0.0734,0.0864,0.0903,0.1104,0.1199,0.1384,0.1532,0.151,0.1599,0.1474,0.1418,0.1237,0.1071,0.1113,0.0845,0.0797,0.0767,0.0759,0.0837,0.0835,0.087,0.087,0.0871,0.0872,0,0.0597,0.0616,0.0652,0.0767,0.0836,0.0911,0.1178,0.1361,0.1502,0.1692,0.1721,0.1765,0.1685,0.1531,0.1349,0.118,0.1005,0.0892,0.0866,0.0817,0.0711,0.0712,0.0686,0.0685,0.0683,0.0682,0.0681,0,0.0586,0.0595,0.0672,0.0762,0.0834,0.1015,0.1213,0.1403,0.1607,0.1788,0.1872,0.184,0.1816,0.1569,0.1286,0.0986,0.0943,0.0753,0.0653,0.0744,0.0699,0.0702,0.0704,0.0578,0.0576,0.0575,0.0573,0,0.0596,0.0596,0.0615,0.082,0.0992,0.12,0.1453,0.1609,0.1841,0.1987,0.2099,0.206,0.1806,0.1512,0.1145,0.0921,0.082,0.0711,0.0841,0.0644,0.0639,0.0596,0.0602,0.0561,0.0562,0.0563,0.0564,0.0564,0.0607,0.062,0.0684,0.0893,0.111,0.1362,0.1523,0.1758,0.1979,0.2125,0.214,0.2039,0.1788,0.1226,0.0944,0.0647,0.0659,0.0519,0.0525,0.0531,0.0548,0.0543,0.0448,0.0448,0.0449,0.0449,0.045,0,0.0635,0.0672,0.0828,0.1022,0.1313,0.1425,0.1717,0.1839,0.202,0.2078,0.2114,0.1743,0.1437,0.113,0.0673,0.0435,0.0401,0.0334,0.0351,0.0365,0.0377,0.0387,0.0242,0.0241,0.024,0.0239,0,0,0.0622,0.0705,0.0788,0.12,0.1422,0.1715,0.1857,0.1905,0.1953,0.1914,0.1836,0.1768,0.1451,0.1067,0.0751,0.05,0.0476,0.0426,0.0615,0.0686,0.07,0.0503,0.0537,0,0,0,0,0]}],[{"header":{"parameterUnit":"m.s-1","parameterCategory":2,"la1":30.2991,"la2":30.254,"lo1":-89.0895,"lo2":-89.0444,"dy":0.0017,"dx":0.0017,"nx":28,"ny":28,"refTime":"2025-06-08T21:00:00:Z","depth":"4","parameterNumber":2,"parameterNumberName":"U-component_of_CURRENTS"},"data":[0,0,0,0,0,0,0,0,0,0,0,0,0,0,0,0,0,0,0,0,0,0,0,0,0,0,0,0,0,0,0,0,0,0,0,0,0,0,0,0,0,0,0,0,0,0,0,0,0,0,0,0,0,0,0,0,0,0,0.1364,0.1364,0,0.1395,0.1396,0.1396,0.1438,0.1439,0.1439,0.144,0.1602,0.1605,0.1609,0,0,0,0,0,0,0,0,0,0,0,0,0,0.1349,0.1349,0.1363,0.1364,0.1364,0.1395,0.1396,0.1396,0.1438,0.1439,0.144,0.144,0.16,0.1605,0.1609,0,0,0,0,0,0,0,0,0,0,0,0,0,0.1367,0.1349,0.1363,0.1388,0.139,0.1395,0.1396,0.1396,0.1438,0.1439,0.144,0.1441,0.1599,0.1605,0.161,0.1628,0,0,0.1627,0.163,0,0,0,0,0,0,0,0,0.1366,0.1367,0.1384,0.1386,0.1389,0.1412,0.145,0.148,0.1438,0.1421,0.144,0.1441,0.1549,0.1559,0.1563,0.1635,0.1642,0.1628,0.1631,0.1634,0.1635,0,0,0,0,0,0,0,0.1364,0.1366,0.1377,0.1384,0.1387,0.14,0.1404,0.1455,0.1483,0.1423,0.1426,0.1427,0.1552,0.1557,0.1567,0.1645,0.1628,0.1633,0.1636,0.1638,0.1817,0.1819,0,0,0,0,0,0,0.1356,0.1365,0.1376,0.1378,0.1377,0.14,0.1404,0.1405,0.148,0.1491,0.1426,0.1428,0.1547,0.1561,0.1573,0.1705,0.1634,0.1639,0.1642,0.1816,0.1818,0.1819,0,0,0,0,0,0,0.1356,0.1357,0.1375,0.1371,0.1374,0.1399,0.14,0.1405,0.1449,0.1481,0.1495,0.1468,0.1548,0.1566,0.1648,0.1708,0.1642,0.1647,0.1814,0.1817,0.1818,0.19,0,0,0,0,0,0,0.1355,0.1356,0.1377,0.1371,0.1374,0.1399,0.1399,0.1405,0.1445,0.145,0.1522,0.1535,0.155,0.164,0.1654,0.1714,0.1651,0.1813,0.1815,0.1818,0.1896,0.1905,0.1913,0,0,0,0,0,0.1354,0.1365,0.1377,0.138,0.1394,0.1399,0.1404,0.1424,0.1447,0.1468,0.1519,0.1534,0.1665,0.1646,0.1662,0.1726,0.1812,0.1815,0.1818,0.1892,0.1903,0.1913,0,0,0,0,0,0,0.1356,0.137,0.1383,0.1396,0.141,0.1407,0.1437,0.1448,0.1502,0.1523,0.1559,0.1576,0.1665,0.1679,0.1656,0.1779,0.1739,0.1745,0.179,0.1801,0.1809,0.1781,0.1656,0,0,0,0,0,0.1368,0.1392,0.1395,0.141,0.1428,0.1444,0.1459,0.1466,0.1498,0.1524,0.1575,0.1629,0.1682,0.173,0.1766,0.1848,0.1847,0.1894,0.1902,0.191,0.1896,0.1971,0.1986,0.1829,0.1829,0.1829,0,0,0.1373,0.1383,0.1398,0.1415,0.1439,0.1434,0.1458,0.1485,0.1495,0.1536,0.1605,0.1663,0.1706,0.1785,0.1828,0.1816,0.1949,0.1914,0.192,0.1901,0.1976,0.1992,0.2005,0.1831,0.1831,0.1831,0,0,0.1365,0.1412,0.142,0.1434,0.1461,0.1463,0.1479,0.1506,0.1551,0.1602,0.1644,0.1735,0.1807,0.1861,0.1892,0.1969,0.1983,0.1995,0.2037,0.2113,0.2126,0.2138,0.2138,0.215,0.2012,0.2012,0.2012,0,0.1374,0.1363,0.1424,0.1422,0.1431,0.1476,0.1468,0.1509,0.1559,0.1633,0.163,0.1781,0.1832,0.1942,0.1971,0.1992,0.2012,0.2002,0.2125,0.2137,0.2148,0.2145,0.2157,0.2016,0.2016,0.2015,0.2015,0,0.1349,0.1349,0.1362,0.1372,0.1404,0.1403,0.1456,0.1536,0.1596,0.164,0.1779,0.184,0.1946,0.1978,0.2001,0.2125,0.2104,0.2121,0.2103,0.2169,0.2161,0.2172,0.2022,0.2021,0.202,0.2019,0,0,0.1326,0.1336,0.1337,0.1339,0.1373,0.1392,0.1473,0.156,0.1665,0.1725,0.184,0.1942,0.2024,0.2061,0.2124,0.2183,0.2284,0.2197,0.2199,0.2199,0.2411,0.2209,0.2201,0.2346,0.2349,0.2351,0.2367,0,0.1278,0.1224,0.1273,0.1261,0.124,0.1359,0.1439,0.1553,0.1673,0.1809,0.1911,0.203,0.2041,0.2132,0.2194,0.2285,0.2319,0.2274,0.2342,0.2342,0.2159,0.2209,0.236,0.2375,0.2377,0.2379,0.238,0,0.1216,0.1187,0.1145,0.1213,0.1237,0.1275,0.1472,0.1556,0.178,0.1904,0.2051,0.2126,0.2263,0.2236,0.2381,0.2365,0.2385,0.2405,0.2408,0.2192,0.216,0.2298,0.2399,0.2398,0.2396,0.2395,0.2394,0,0.1116,0.111,0.1073,0.1081,0.117,0.1269,0.1365,0.1596,0.1747,0.1984,0.2119,0.2253,0.2352,0.2412,0.2459,0.2462,0.255,0.2568,0.2371,0.2355,0.2497,0.2484,0.2615,0.2615,0.2615,0.2615,0.2615,0,0.101,0.1001,0.1037,0.1023,0.1073,0.1212,0.1374,0.1541,0.1812,0.1983,0.2169,0.2266,0.241,0.2471,0.2486,0.2445,0.2585,0.236,0.2354,0.2526,0.2516,0.2503,0.249,0.2615,0.2615,0.2615,0.2615,0,0.0911,0.0915,0.0891,0.0976,0.1015,0.1078,0.1341,0.1496,0.1788,0.2014,0.21,0.2324,0.2409,0.2478,0.2553,0.2471,0.2457,0.2388,0.2517,0.2521,0.2198,0.219,0.2196,0.2189,0.2183,0.2179,0.2175,0,0.0853,0.0812,0.0828,0.0835,0.0885,0.1009,0.1125,0.1433,0.1599,0.1999,0.2065,0.225,0.2353,0.2308,0.2359,0.2348,0.231,0.2273,0.2262,0.2166,0.2161,0.2161,0.216,0.2165,0.2164,0.2162,0.2161,0,0.0754,0.0766,0.0749,0.0722,0.08,0.0916,0.1095,0.121,0.1595,0.1826,0.2033,0.2114,0.2169,0.2178,0.2176,0.2155,0.23,0.2212,0.2225,0.2215,0.2129,0.213,0.2136,0.2141,0.2144,0.2146,0.2147,0,0.071,0.0658,0.063,0.0622,0.0717,0.0852,0.0946,0.1155,0.1367,0.1809,0.1797,0.2014,0.2137,0.2068,0.2051,0.2035,0.2011,0.195,0.1976,0.1999,0.1918,0.178,0.1672,0,0,0,0,0,0.0663,0.0587,0.0544,0.0552,0.0667,0.0751,0.096,0.1093,0.138,0.1495,0.1701,0.1759,0.1833,0.1855,0.1798,0.1891,0.1972,0.1806,0.1904,0.203,0.2053,0.1972,0,0,0,0,0,0,0.0613,0.056,0.0494,0.0541,0.0577,0.0737,0.0895,0.1082,0.1149,0.1413,0.1431,0.1616,0.1652,0.186,0.1757,0.1766,0.1782,0.1895,0.1889,0.2017,0.2038,0.2056,0.1981,0,0,0,0,0]},{"header":{"parameterUnit":"m.s-1","parameterCategory":2,"la1":30.2991,"la2":30.254,"lo1":-89.0895,"lo2":-89.0444,"dy":0.0017,"dx":0.0017,"nx":28,"ny":28,"refTime":"2025-06-08T21:00:00:Z","depth":"4","parameterNumber":3,"parameterNumberName":"V-component_of_CURRENTS"},"data":[0,0,0,0,0,0,0,0,0,0,0,0,0,0,0,0,0,0,0,0,0,0,0,0,0,0,0,0,0,0,0,0,0,0,0,0,0,0,0,0,0,0,0,0,0,0,0,0,0,0,0,0,0,0,0,0,0,0,0.002,0.0019,0,-0.0015,-0.0016,-0.0016,-0.0054,-0.0054,-0.0054,-0.0054,-0.0037,-0.0036,-0.0035,0,0,0,0,0,0,0,0,0,0,0,0,0,-0.0007,-0.0007,0.002,0.0019,0.0019,-0.0015,-0.0016,-0.0017,-0.0053,-0.0054,-0.0054,-0.0054,-0.0037,-0.0036,-0.0035,0,0,0,0,0,0,0,0,0,0,0,0,0,-0.0017,-0.0006,0.002,-0.0001,-0.0003,-0.0015,-0.0016,-0.0017,-0.0053,-0.0054,-0.0054,-0.0055,-0.0037,-0.0036,-0.0035,-0.002,0,0,-0.0032,-0.0031,0,0,0,0,0,0,0,0,-0.0016,-0.0016,0.0002,0.0,-0.0002,-0.0028,-0.0019,-0.0014,-0.0053,-0.0037,-0.0054,-0.0055,-0.0027,-0.0027,-0.0037,-0.002,-0.0019,-0.0032,-0.0031,-0.0031,-0.003,0,0,0,0,0,0,0,-0.0015,-0.0015,0.0003,0.0002,-0.0001,-0.003,-0.0031,-0.0019,-0.003,-0.0039,-0.0041,-0.004,-0.0028,-0.0038,-0.0037,-0.0019,-0.0032,-0.0031,-0.003,-0.003,-0.0002,-0.0001,0,0,0,0,0,0,-0.0002,-0.0014,0.0004,0.0002,-0.0007,-0.0029,-0.0031,-0.0022,-0.0032,-0.0033,-0.004,-0.0042,-0.004,-0.0038,-0.0036,-0.001,-0.0031,-0.003,-0.0029,-0.0002,-0.0002,-0.0001,0,0,0,0,0,0,-0.0002,0.0001,0.0006,-0.0005,-0.0006,-0.0027,-0.0017,-0.0022,-0.0028,-0.0033,-0.0034,-0.004,-0.004,-0.0038,-0.0023,-0.001,-0.0029,-0.0028,-0.0002,-0.0002,-0.0002,0.0036,0,0,0,0,0,0,-0.0002,0.0001,0.0009,-0.0004,-0.0005,0.0007,-0.0017,-0.0022,-0.0026,-0.0029,-0.0033,-0.0033,-0.004,-0.0025,-0.0022,-0.0009,-0.0027,-0.0002,-0.0002,-0.0002,0.0035,0.0038,0.004,0,0,0,0,0,-0.0003,0.001,0.001,0.0012,0.0008,0.0008,0.0005,-0.0014,-0.0026,-0.0023,-0.003,-0.0033,-0.0022,-0.0024,-0.0021,-0.0007,-0.0002,-0.0002,-0.0002,0.0034,0.0037,0.004,0,0,0,0,0,0,-0.0002,0.0007,0.0007,0.0021,0.002,0.0003,0.0004,-0.0008,-0.0013,-0.0014,-0.0024,-0.0023,-0.001,-0.0013,-0.0015,-0.0001,-0.0015,-0.0014,0.001,0.0014,0.0016,0.0014,-0.0027,0,0,0,0,0,0.0006,0.0021,0.0021,0.0033,0.0037,0.0022,0.0019,0.001,0.0004,0.0,-0.0005,-0.0009,-0.0007,-0.0,-0.0002,0.0017,-0.0001,0.0023,0.0026,0.0028,0.0027,0.0017,0.0019,-0.0001,-0.0001,-0.0001,0,0,0.0011,0.0017,0.0025,0.0035,0.0032,0.004,0.0019,0.0022,0.0031,0.0007,0.0016,0.0002,-0.0002,0.0009,0.0015,0.0011,0.0022,0.0029,0.0031,0.0028,0.0017,0.0019,0.0021,-0.0001,-0.0001,-0.0001,0,0,0.0032,0.0035,0.0058,0.0059,0.0064,0.0055,0.006,0.0051,0.0052,0.0059,0.004,0.003,0.0039,0.0029,0.0029,0.0046,0.0033,0.0051,0.0071,0.0061,0.0063,0.0064,0.0035,0.0033,0.0057,0.0057,0.0057,0,0.0037,0.0065,0.0062,0.0079,0.0083,0.0066,0.0084,0.0084,0.0078,0.0089,0.0068,0.0045,0.0045,0.0047,0.0054,0.0053,0.0042,0.0063,0.0066,0.0067,0.0067,0.0037,0.0035,0.0059,0.0058,0.0058,0.0058,0,0.0076,0.0093,0.0104,0.0122,0.0124,0.0135,0.0136,0.0145,0.0136,0.0132,0.0126,0.0093,0.0082,0.0076,0.0077,0.0081,0.0069,0.0068,0.006,0.0072,0.0038,0.0035,0.0061,0.0061,0.006,0.006,0,0,0.0104,0.0129,0.0135,0.0152,0.0147,0.016,0.0178,0.0198,0.0226,0.0185,0.0185,0.0168,0.0138,0.0133,0.011,0.0095,0.0092,0.0094,0.0093,0.0069,0.0062,0.0061,0.0057,0.0102,0.0102,0.0102,0.0034,0,0.0137,0.0188,0.0182,0.0217,0.024,0.0226,0.0248,0.026,0.0266,0.0262,0.0204,0.0202,0.0166,0.016,0.0133,0.0113,0.0087,0.0109,0.0051,0.0049,0.005,0.0055,0.0101,0.0032,0.0031,0.0031,0.003,0,0.0178,0.0209,0.026,0.0282,0.0291,0.0308,0.0347,0.0361,0.0357,0.0363,0.0321,0.0275,0.0233,0.0193,0.0133,0.0155,0.0113,0.0075,0.0072,0.0056,0.0042,0.0019,0.0024,0.0025,0.0025,0.0026,0.0026,0,0.0221,0.0257,0.0306,0.0313,0.0338,0.0367,0.0377,0.0401,0.0441,0.0425,0.0444,0.0356,0.0325,0.0251,0.017,0.017,0.0085,0.0076,0.0014,0.0013,0.0017,0.0016,0.0019,0.0019,0.0019,0.002,0.002,0,0.0258,0.0292,0.034,0.0369,0.0433,0.0422,0.0489,0.0508,0.0521,0.0566,0.05,0.0483,0.0348,0.0273,0.0184,0.0092,0.01,0.0014,0.0,0.0032,0.0034,0.0014,0.0014,0.0017,0.0018,0.0018,0.0019,0,0.0282,0.032,0.0374,0.0428,0.046,0.0501,0.0567,0.0612,0.0643,0.0687,0.0684,0.0597,0.0509,0.0364,0.0229,0.0137,0.0034,-0.0007,0.0023,0.0013,-0.0044,-0.0041,-0.0078,-0.0079,-0.0079,-0.008,-0.008,0,0.03,0.0333,0.0424,0.0484,0.0515,0.0584,0.0637,0.0674,0.0706,0.0753,0.0747,0.0682,0.0608,0.0406,0.0243,0.0055,0.0026,-0.0039,-0.0039,-0.0042,-0.0052,-0.0048,-0.0045,-0.0081,-0.0081,-0.0081,-0.0081,0,0.0306,0.034,0.0392,0.0528,0.061,0.0684,0.0743,0.0779,0.0814,0.0854,0.0831,0.073,0.0606,0.0402,0.026,0.0119,0.0,-0.0044,-0.0044,-0.0045,-0.0046,-0.0054,-0.005,-0.0082,-0.0082,-0.0082,-0.0082,0,0.0308,0.034,0.0431,0.055,0.0664,0.0748,0.0778,0.0807,0.0845,0.088,0.0852,0.0752,0.0663,0.0434,0.0295,0.0166,0.0126,0.0075,0.0068,0.0068,0.0126,0.0148,0.016,0,0,0,0,0,0.03,0.0343,0.0449,0.0583,0.07,0.0772,0.0834,0.0844,0.0874,0.0878,0.0879,0.0771,0.0585,0.046,0.0335,0.0263,0.0084,0.0106,0.0017,-0.0091,-0.0089,-0.0046,0,0,0,0,0,0,0.0298,0.0372,0.0434,0.0595,0.0697,0.0815,0.0861,0.0885,0.0852,0.0869,0.0748,0.0741,0.052,0.068,0.0339,0.0296,0.0219,0.0019,0.0016,-0.0091,-0.009,-0.0089,-0.0043,0,0,0,0,0]}]]